Regional Weather Roundup
Issued by NWS

Home | Current Version | Previous Version | Text Only | Print | Product List | Glossary Off
Versions: 1 2 3 4 5 6 7 8 9 10 11 12 13 14 15 16 17 18 19 20 21 22 23 24 25 26 27 28 29 30 31 32 33 34 35 36 37 38 39 40 41 42 43 44 45 46 47 48 49 50

433
ASUS45 KBOU 240407
RWRCO

WEATHER ROUNDUP FOR COLORADO
NATIONAL WEATHER SERVICE DENVER/BOULDER CO
1000 PM MDT THU MAR 23 2017

NOTE: "FAIR" INDICATES FEW OR NO CLOUDS BELOW 12000 FEET WITH NO
SIGNIFICANT WEATHER AND/OR OBSTRUCTIONS TO VISIBILITY.

COZ001>005-013-030-031-240500-
...NORTHWEST COLORADO...

CITY           SKY/WX    TMP DP  RH WIND       PRES   REMARKS
CRAIG          CLOUDY    42  37  82 SW3       29.83R
HAYDEN         CLOUDY    39  30  70 SW9       29.83R
MEEKER         CLOUDY    43  35  73 W5        29.83R
MOUNT WERNER   NOT AVBL
STEAMBOAT SPGS CLOUDY    42  32  68 CALM      29.81R
WALDEN         NOT AVBL
$$

COZ006>008-011-240500-
...WEST CENTRAL VALLEYS...

CITY           SKY/WX    TMP DP  RH WIND       PRES   REMARKS
GRAND JUNCTION LGT RAIN  45  39  79 NW6       29.82R
MONTROSE       RAIN      40  38  93 W6        29.82R FOG
EAGLE          CLOUDY    43  28  56 CALM      29.81F
RIFLE          LGT RAIN  44  37  76 NW17G23   29.81R
DELTA          MOCLDY    47  37  68 W15G23    29.78F
NUCLA          LGT RAIN  39  36  87 S7        29.86S
$$

COZ017>023-064>068-240500-
...SOUTHWEST COLORADO...

CITY           SKY/WX    TMP DP  RH WIND       PRES   REMARKS
DURANGO        CLOUDY    35  33  92 W17G26    29.77S WCI  25
CORTEZ         LGT RAIN  38  36  92 E3        29.85S
PAGOSA SPRINGS LGT SNOW  33  33 100 SW7       29.75S WCI  27
TELLURIDE      NOT AVBL
WOLF CREEK PAS LGT SNOW  19  19 100 W6        29.79F WCI  11
$$

COZ009-010-012-014-032>034-037-058>063-240500-
...CENTRAL COLORADO...

CITY           SKY/WX    TMP DP  RH WIND       PRES   REMARKS
ASPEN          CLOUDY    33  32  96 CALM      29.80R
BUENA VISTA    FAIR      39  25  58 NW20G30   29.70F
COPPER MTN     LGT SNOW  28  23  80 MISG      29.87S VSB 3/4
BERTHOUD PASS  CLOUDY    19  10  68 NE3       29.90S
COTTONWOOD PAS FAIR      34  28  80 SW10G17   29.74F WCI  26
GUNNISON       FAIR      35  31  85 SW5       29.74F WCI  31
KREMMLING      FAIR      41  36  81 CALM      29.83R
LEADVILLE      CLOUDY    29  22  75 N15G24    29.79F WCI  18
MONARCH PASS   CLOUDY    27  23  86 NE10      29.87F WCI  17
SALIDA         MOCLDY    43  30  60 NW5       29.76F
SUNLIGHT       SNOW      27  25  93 NW5       29.91S VSB<1/4 WCI  21
WILKERSON PASS MOCLDY    32  21  64 NE15G36   29.79F WCI  22
$$

COZ069>075-240500-
...SAN LUIS VALLEY/SANGRE DE CRISTO MOUNTAINS...

CITY           SKY/WX    TMP DP  RH WIND       PRES   REMARKS
ALAMOSA        CLOUDY    36  33  89 NW17G28   29.61F
LA VETA PASS   NOT AVBL
SAGUACHE       CLOUDY    36  30  80 NW25      29.63F
$$

COZ035-036-038>040-240500-
...NORTHERN COLORADO FRONT RANGE...

CITY           SKY/WX    TMP DP  RH WIND       PRES   REMARKS
DENVER INTL AP CLOUDY    47  36  65 N35G46    29.72R
DMNS CITY PARK   N/A     47  39  75 N17G26    29.74S
AURORA         LGT RAIN  47  38  72 N25G39    29.74R
FRONT RANGE AP NOT AVBL
ERIE MUNI ARPT FAIR      50  36  59 N22G32    29.76R
BOULDER MUN AP CLOUDY    50  36  57 N24G32    29.76R
CENTENNIAL     CLOUDY    48  38  68 N28G37    29.72R
BROOMFIELD     LGT RAIN  50  37  62 N21G33    29.77R BLWGDUST
FORT COLLINS   LGT RAIN  44  39  82 N28G33    29.77R
LONGMONT       CLOUDY    51  40  66 N16G29    29.79R
$$

COZ041-046-047-076>085-087-088-240500-
...PIKES PEAK/PALMER DIVIDE AND SOUTHERN FOOTHILLS...

CITY           SKY/WX    TMP DP  RH WIND       PRES   REMARKS
COLO. SPRINGS  FAIR      56  21  25 N29G40    29.56F
A. F. ACADEMY  FAIR      54  27  35 N41G59    29.59F SQUALL
SCHRIEVER AFB  FAIR      55  19  24 N25G33    29.57F
ELLICOTT         N/A    N/A N/A N/A N32G41    29.54F
FALCON         FAIR      52  21  29 N29G44    29.61F
FORT CARSON    FAIR      57  20  23 N26G38    29.54F
LIMON          MOCLDY    54  34  46 N35G59    29.59S HAZE
MONUMENT HILL  CLOUDY    45  34  65 N25G38    29.75R
TRINIDAD       FAIR      47  27  45 N13       29.47F
$$

COZ042>045-048>051-090-091-240500-
...NORTHEAST COLORADO...

CITY           SKY/WX    TMP DP  RH WIND       PRES   REMARKS
GREELEY ARPT   FAIR      47  35  63 N33G39    29.74
AKRON          FAIR      52  39  61 N41G54    29.64R
BURLINGTON     FAIR      62  43  49 S18       29.57S
WRAY           NOT AVBL
STERLING       FAIR      50  43  76 N30G41    29.68R
HOLYOKE        FAIR      55  43  62 N36G41    29.67R
FORT MORGAN    FAIR      47  41  78 N32G46    29.69R
$$

COZ086-089-092>099-240500-
...SOUTHEAST COLORADO...

CITY           SKY/WX    TMP DP  RH WIND       PRES   REMARKS
PUEBLO         FAIR      57  23  26 NW7       29.46F
LA JUNTA       FAIR      61  26  26 E14       29.48R
LAMAR          FAIR      62  45  53 E14       29.48R
SPRINGFIELD      N/A     60  47  61 SE21G32   29.50F
$$




USA.gov is the U.S. government's official web portal to all federal, state and local government web resources and services.